TimeCST,TemperatureF,Dew PointF,Humidity,Sea Level PressureIn,VisibilityMPH,Wind Direction,Wind SpeedMPH,Gust SpeedMPH,PrecipitationIn,Events,Conditions,WindDirDegrees,DateUTC
12:53 AM,48.0,43.0,83,30.17,10.0,Calm,Calm,-,N/A,,Clear,0,2013-11-04 06:53:00
1:53 AM,46.9,43.0,86,30.15,10.0,SE,6.9,-,N/A,,Clear,130,2013-11-04 07:53:00
2:53 AM,48.0,44.1,86,30.15,10.0,SE,6.9,-,N/A,,Clear,130,2013-11-04 08:53:00
3:53 AM,48.0,44.1,86,30.18,10.0,SSW,3.5,-,N/A,,Clear,200,2013-11-04 09:53:00
4:53 AM,48.9,45.0,86,30.18,10.0,SE,3.5,-,N/A,,Clear,130,2013-11-04 10:53:00
5:53 AM,48.9,44.1,83,30.19,10.0,SE,3.5,-,N/A,,Clear,130,2013-11-04 11:53:00
6:53 AM,48.9,46.0,90,30.21,10.0,Calm,Calm,-,N/A,,Clear,0,2013-11-04 12:53:00
7:53 AM,51.1,46.0,83,30.23,10.0,ESE,3.5,-,N/A,,Clear,120,2013-11-04 13:53:00
8:53 AM,52.0,46.9,83,30.25,10.0,ESE,4.6,-,N/A,,Clear,110,2013-11-04 14:53:00
9:53 AM,53.1,48.0,83,30.22,10.0,SE,8.1,-,N/A,,Partly Cloudy,140,2013-11-04 15:53:00
10:53 AM,57.9,48.9,72,30.22,10.0,SE,10.4,-,N/A,,Clear,130,2013-11-04 16:53:00
11:53 AM,62.1,48.0,60,30.21,10.0,South,9.2,-,N/A,,Clear,170,2013-11-04 17:53:00
12:53 PM,63.0,50.0,63,30.19,10.0,South,11.5,-,N/A,,Scattered Clouds,170,2013-11-04 18:53:00
1:53 PM,64.0,50.0,60,30.17,10.0,SE,9.2,-,N/A,,Clear,140,2013-11-04 19:53:00
2:53 PM,63.0,50.0,63,30.18,10.0,SSE,6.9,-,N/A,,Clear,160,2013-11-04 20:53:00
3:53 PM,62.1,53.1,72,30.18,10.0,East,4.6,-,N/A,,Clear,100,2013-11-04 21:53:00
4:53 PM,61.0,53.1,75,30.18,10.0,NE,3.5,-,N/A,,Clear,50,2013-11-04 22:53:00
5:53 PM,59.0,53.1,81,30.19,10.0,Calm,Calm,-,N/A,,Clear,0,2013-11-04 23:53:00
6:53 PM,57.9,53.1,84,30.20,10.0,SE,4.6,-,N/A,,Clear,130,2013-11-05 00:53:00
7:53 PM,57.0,53.1,87,30.20,10.0,NE,3.5,-,N/A,,Partly Cloudy,50,2013-11-05 01:53:00
8:53 PM,57.0,52.0,83,30.22,10.0,Calm,Calm,-,N/A,,Mostly Cloudy,0,2013-11-05 02:53:00
9:53 PM,57.9,52.0,81,30.22,10.0,ESE,8.1,-,N/A,,Clear,110,2013-11-05 03:53:00
10:53 PM,57.0,52.0,83,30.21,10.0,SE,9.2,-,N/A,,Clear,130,2013-11-05 04:53:00
11:53 PM,57.9,51.1,78,30.20,10.0,SE,6.9,-,N/A,,Clear,140,2013-11-05 05:53:00